Dewpoint
46 40 41 39 27 28 24 27 33 30 28 31 46 42 40 42 35 34 60 61 63 63 64 68 69 70 68 69 69 70 69 70 69 69 68 66 65 65 65 65 66 66 64 63 64 64 64 63 63
34 34 39 36 28 17 17 26 33 29 31 40 40 42 39 41 54 57 59 62 62 63 65 64 69 70 70 69 69 68 69 70 69 68 67 65 64 64 64 65 66 67 66 64 62 64 62 61 62
35 31 29 34 30 17 16 25 31 34 38 35 38 44 43 46 55 57 59 62 63 64 65 66 70 70 70 69 69 69 69 70 69 67 66 65 64 64 65 65 64 66 65 64 64 61 64 63 62
35 33 29 26 23 21 20 22 28 38 33 33 41 39 51 55 55 57 60 62 62 64 65 68 70 70 69 69 68 67 69 70 69 67 65 64 64 63 64 65 64 64 65 62 62 63 63 63 64
34 33 27 25 21 20 20 26 31 34 30 33 37 36 47 56 57 58 60 62 62 64 66 66 69 69 69 68 67 67 69 69 68 67 65 64 64 63 64 64 63 63 64 63 63 63 64 65 64
28 31 25 21 20 24 27 28 30 27 28 36 36 39 47 58 56 58 59 61 62 64 66 66 66 67 68 68 68 68 68 69 69 67 64 64 63 63 64 62 61 62 65 64 63 64 65 64 64
28 29 26 23 21 24 26 28 25 25 28 32 41 35 48 57 58 59 59 61 62 64 65 66 64 64 66 66 67 67 68 69 68 67 66 66 65 65 64 64 62 64 66 65 66 65 65 64 63
31 30 26 21 20 21 28 27 25 24 26 39 43 31 40 55 59 59 59 61 62 64 65 66 65 62 63 64 64 65 66 67 67 66 64 64 64 64 63 63 63 62 63 65 64 65 65 64 63
29 26 25 23 20 20 28 25 26 26 29 38 42 37 50 59 59 59 58 60 61 63 64 65 65 64 63 63 62 63 64 64 64 63 62 61 60 59 58 61 62 62 61 63 64 63 63 63 62
26 25 26 23 20 21 26 25 25 25 26 29 35 43 57 60 58 57 56 57 60 61 63 64 66 65 64 62 63 62 63 63 62 62 61 59 59 58 57 60 61 61 62 63 62 61 59 59 58
24 21 22 19 20 22 25 22 24 23 24 24 26 36 56 59 57 57 56 56 58 60 62 64 66 66 64 63 63 62 62 62 62 62 61 59 58 59 58 60 60 59 59 59 59 57 56 57 57
20 18 20 26 26 23 24 23 22 24 23 24 27 33 53 57 56 55 56 56 58 60 62 64 65 65 65 64 64 62 61 62 61 61 61 59 57 58 58 57 59 60 59 59 58 56 57 56 56
21 20 24 24 24 23 23 22 20 21 23 23 28 41 50 55 56 56 56 58 59 60 61 63 64 64 64 64 64 63 63 61 60 61 61 58 56 57 57 58 57 57 57 56 56 55 55 56 55
22 25 24 22 22 23 21 20 22 20 22 23 28 35 45 53 56 58 58 58 60 61 61 63 63 64 64 64 64 64 63 63 61 60 60 59 56 56 57 57 57 56 55 53 54 54 53 54 55
23 21 21 21 22 22 22 15 15 18 19 21 24 29 40 50 56 57 58 59 60 62 63 63 64 64 63 63 63 64 64 63 63 61 60 59 58 56 55 56 56 56 55 55 54 54 53 53 53
16 18 16 15 22 24 14 11 3 21 16 16 20 22 26 39 51 55 57 58 59 61 62 63 63 64 63 63 63 63 63 64 63 62 61 60 58 57 56 55 55 56 56 54 53 52 51 52 52
15 10 13 6 22 22 15 12 12 22 21 17 17 19 21 21 28 45 55 58 59 59 60 61 63 64 63 63 63 63 63 63 63 63 62 61 60 58 56 55 55 56 55 54 53 52 52 51 50
16 8 10 5 19 22 20 15 15 19 21 21 21 21 23 22 21 23 32 51 56 59 60 60 61 63 64 63 63 63 63 63 63 63 62 61 61 60 58 57 56 55 54 54 53 52 51 50 50
12 8 7 12 23 22 19 19 17 18 21 20 20 20 21 22 22 23 26 29 45 55 58 59 60 62 63 62 62 62 61 62 63 63 63 62 61 62 60 58 57 56 55 55 54 52 51 50 49
10 8 13 23 23 22 21 19 20 20 20 21 20 19 20 20 19 22 26 25 29 41 53 57 59 60 62 62 62 62 61 62 62 63 63 63 62 62 60 58 58 57 56 55 55 54 52 50 48
14 9 16 13 20 18 15 8 9 11 15 15 22 22 22 26 29 30 30 29 30 32 43 51 56 58 60 61 61 61 61 61 62 62 62 62 62 62 62 60 59 58 57 56 56 54 52 54 51
12 16 19 20 15 6 17 -4 10 11 12 24 26 27 28 29 31 32 35 37 39 39 34 43 51 56 58 60 60 60 59 59 60 60 62 62 62 62 62 62 61 60 59 57 57 55 54 54 52
14 21 20 20 21 17 15 6 4 8 13 20 20 27 31 33 34 34 37 40 42 46 41 36 46 52 56 58 60 60 59 59 60 61 61 61 62 62 62 62 62 60 59 58 58 56 55 54 54
24 22 20 22 20 11 15 11 1 2 7 16 20 30 32 34 35 35 38 40 43 49 51 47 46 51 55 57 58 59 58 59 59 60 60 60 60 60 60 61 61 61 60 59 58 58 56 54 53
20 14 14 12 15 9 16 15 5 7 10 15 20 31 34 35 35 36 37 38 40 42 47 52 54 53 55 56 57 58 58 58 58 58 57 58 58 58 58 58 58 58 60 60 59 57 56 55 54
20 12 15 13 11 9 20 14 10 17 21 21 30 33 34 34 35 35 36 37 38 40 40 40 41 42 46 51 52 54 54 55 55 55 55 55 55 54 54 53 54 54 55 56 58 58 57 56 54
18 13 18 18 19 19 11 14 15 26 27 29 31 32 32 33 34 34 35 35 37 38 39 40 39 39 40 40 41 41 42 43 43 44 46 46 47 46 46 48 48 49 49 51 51 54 53 54 54
19 19 16 15 22 16 3 8 8 25 27 29 30 31 31 33 34 35 36 37 38 38 38 38 38 38 38 39 39 39 40 40 41 41 41 42 42 43 43 44 44 45 46 46 48 49 51 51 53
17 14 16 14 15 19 11 2 11 21 27 28 29 31 32 34 36 36 36 37 38 38 38 37 37 37 38 38 38 39 38 37 38 38 38 39 40 40 40 41 42 42 43 44 45 46 47 47 48
23 17 14 12 16 13 15 8 19 22 28 30 30 31 33 36 36 36 36 37 37 36 35 35 34 35 35 35 35 36 35 35 34 35 35 37 37 38 38 38 39 40 40 41 43 43 44 45 45
Lifted_Index
9 9 8 6 6 5 5 5 5 5 5 4 3 2 2 2 1 1 -0 -1 -2 -2 -3 -4 -4 -3 -3 -2 -2 -2 -3 -3 -2 -2 -1 0 1 1 1 1 1 1 1 2 2 2 3 3 3
9 8 7 6 5 5 5 5 5 5 5 4 3 2 2 1 0 -0 -0 -1 -1 -2 -3 -3 -3 -3 -3 -2 -2 -2 -3 -3 -2 -1 -1 0 1 1 1 1 1 0 1 2 2 3 3 3 3
8 8 7 6 5 5 5 5 5 5 5 5 4 3 2 1 -0 -1 -1 -1 -1 -2 -3 -3 -3 -3 -3 -2 -2 -2 -3 -3 -2 -1 -0 1 1 1 1 1 1 1 1 2 2 3 3 3 3
7 7 7 6 5 5 5 6 5 5 5 5 4 3 1 0 -0 -0 -1 -1 -2 -2 -3 -3 -3 -3 -3 -2 -1 -2 -3 -3 -2 -1 0 1 1 1 1 2 2 1 1 2 2 2 2 2 2
7 7 7 6 5 5 6 6 5 5 6 6 5 3 1 0 0 0 -1 -1 -2 -2 -3 -3 -3 -3 -2 -2 -1 -2 -2 -3 -2 -1 0 1 1 1 2 2 2 2 1 2 2 2 2 2 2
7 7 6 5 5 6 6 6 6 6 6 6 5 4 2 0 0 0 -1 -1 -2 -2 -3 -2 -2 -2 -2 -1 -1 -1 -2 -2 -2 -1 0 1 1 2 2 2 2 2 1 1 2 2 1 2 2
7 7 6 5 5 5 6 7 7 7 7 6 5 4 2 0 -0 0 -0 -1 -2 -2 -3 -2 -2 -1 -1 -1 -1 -1 -1 -2 -1 -0 1 1 2 2 2 3 3 2 1 1 1 1 1 2 2
7 7 6 6 5 5 6 7 7 7 7 6 5 4 3 1 0 0 -0 -1 -1 -2 -2 -2 -2 -1 -0 -0 -0 -0 -0 -1 -0 1 2 2 2 3 3 3 3 2 2 1 1 2 2 3 3
7 7 6 6 5 6 6 7 7 7 7 6 6 5 3 1 0 0 0 -0 -1 -2 -2 -2 -2 -1 -1 -0 0 1 0 0 1 1 2 3 3 3 4 3 3 3 3 3 3 3 3 4 4
7 6 6 6 6 6 7 7 7 7 7 7 7 5 2 0 0 1 1 0 -0 -1 -1 -2 -2 -2 -1 -0 0 1 1 1 1 2 3 3 4 4 4 4 4 4 4 4 4 5 5 5 5
7 6 6 6 7 7 7 7 7 7 7 7 7 5 2 0 0 0 1 1 0 -0 -1 -1 -1 -1 -1 -0 0 1 1 1 2 2 3 4 4 4 4 4 4 4 4 4 5 5 6 5 5
6 6 6 7 7 7 7 7 7 7 7 8 8 6 3 0 0 0 0 1 0 -0 -0 -0 -1 -1 -1 -0 0 1 1 2 2 3 3 4 5 5 5 4 4 5 5 5 5 6 6 6 6
7 7 7 7 7 7 7 7 7 7 8 8 8 7 4 1 0 0 0 0 0 -0 -0 -0 -0 -0 -0 -0 0 1 1 2 2 3 3 4 4 4 5 5 5 5 5 5 6 6 6 6 6
7 7 7 7 7 7 7 6 6 7 7 8 8 7 5 2 1 -0 -0 -0 -0 -0 -0 -0 -0 -0 -0 0 0 1 1 1 2 3 3 3 3 4 4 4 4 5 5 5 6 6 6 6 6
7 7 7 7 7 7 6 6 6 6 7 7 7 7 6 4 2 0 -0 -0 -0 -1 -1 -1 -1 -0 -0 0 0 1 1 1 2 2 3 3 3 3 3 3 4 4 5 5 6 6 6 6 6
7 6 6 6 7 7 6 5 5 6 6 6 6 7 7 6 4 2 1 0 -0 -0 -0 -1 -0 -0 -0 0 0 0 0 1 1 1 2 2 2 2 2 3 4 4 4 5 5 5 5 5 5
6 5 5 6 6 6 5 5 5 6 6 6 6 7 7 7 7 6 4 2 1 0 -0 -0 -0 -0 -0 -0 -0 0 0 0 0 1 1 2 2 2 2 3 3 4 4 4 4 4 4 4 4
5 5 5 5 6 6 5 5 5 6 6 6 6 6 7 8 8 8 7 5 3 2 1 0 -0 -0 -0 -0 -0 -0 -0 -0 0 0 1 1 1 2 2 3 3 3 3 4 4 4 4 3 3
5 5 5 5 6 6 5 5 5 6 6 6 6 6 7 7 8 9 9 8 6 4 2 1 0 -0 -0 -1 -1 -1 -1 -1 -0 -0 0 0 1 1 2 2 3 3 3 3 3 3 3 3 2
5 5 5 5 6 6 5 4 5 6 6 6 6 7 7 7 8 8 8 9 8 7 5 3 1 0 -0 -0 -0 -0 -1 -0 -0 -0 0 0 0 0 1 1 2 2 2 2 2 2 2 2 2
5 5 5 5 5 5 5 4 4 5 6 6 6 7 7 7 7 7 8 8 8 8 7 5 3 2 1 0 -0 -0 -0 -0 -0 -0 -0 0 0 0 0 0 1 1 1 1 1 1 1 2 2
5 6 6 5 5 5 4 3 4 5 5 6 6 7 7 7 7 7 7 8 8 9 9 8 6 4 2 1 0 0 0 0 0 0 0 0 0 0 0 0 0 0 0 0 0 1 1 1 2
6 6 6 6 5 4 4 3 3 4 5 5 6 7 7 8 8 8 8 8 8 9 9 9 8 6 4 2 1 1 1 1 1 0 0 1 1 1 1 1 1 0 0 0 0 1 1 1 2
6 6 5 5 4 3 3 3 3 4 5 5 6 7 8 8 9 9 8 8 8 8 8 8 8 7 5 3 2 2 2 1 1 1 1 1 1 2 2 2 1 1 1 1 1 1 2 2 2
6 5 4 3 2 2 3 3 4 5 6 6 7 8 8 9 9 9 9 9 9 9 8 8 7 7 6 5 4 3 3 3 3 2 3 3 3 3 3 4 3 3 3 3 3 3 3 3 3
6 5 3 2 1 2 3 3 4 6 7 7 8 8 8 9 9 9 9 9 9 9 8 8 8 8 7 6 6 5 5 5 5 5 5 5 5 6 6 6 6 6 6 5 5 4 4 4 4
5 5 4 3 2 2 2 3 4 5 6 7 8 8 8 8 8 8 8 8 8 8 8 8 8 8 8 8 7 7 7 7 7 7 7 7 7 7 8 8 8 8 8 7 7 6 6 5 5
5 5 4 4 2 1 2 3 4 5 6 6 7 8 8 8 8 8 8 8 8 8 8 8 8 8 8 8 8 8 8 8 8 8 8 8 8 8 8 8 8 8 8 8 8 7 7 6 6
5 5 4 3 2 1 1 2 4 5 6 6 7 8 8 8 8 8 7 7 8 8 8 8 8 8 8 8 8 8 8 8 9 9 9 9 10 10 10 10 9 9 9 9 8 8 7 7 7
5 4 4 3 2 2 2 3 5 6 6 7 7 7 7 7 7 7 7 7 7 8 8 8 8 8 8 8 8 8 8 8 8 9 9 10 10 11 11 11 11 10 10 9 9 8 8 7 7